Home   Weather   Marl   Past weeks

Flag for Germany Past Weather in Marl, North Rhine-Westphalia, Germany — Yesterday and Last 2 Weeks

Now
46 °F

Scattered showers. Scattered clouds.


Feels Like: 44 °F
Forecast: 36 / 53 °F
Wind: 5 mph from South

Location: Dortmund / Wickede

Current Time: Apr 27, 2017 at 7:11:19 pm

Latest Report: Apr 27, 2017 at 6:20 pm


Visibility: N/A

Pressure: 29.95 "Hg

Humidity: 40%

Dew Point: 23 °F

Location of MarlLocation

Past Weather in Marl — Graph

°F

Marl Temperature Yesterday

Maximum temperature yesterday: 50 °F (at 3:20 pm)
Minimum temperature yesterday: 32 °F (at 5:20 am)
Average temperature yesterday: 42 °F

High & Low Weather Summary for the Past Weeks

 TemperatureHumidityPressure
High57 °F (Apr 24, 2:50 pm)93% (Apr 14, 6:50 am)30.60 "Hg (Apr 14, 6:50 am)
Low25 °F (Apr 20, 5:20 am)28% (Apr 20, 3:20 pm)29.68 "Hg (Apr 25, 5:20 am)
Average44 °F65%30.11 "Hg
* Reported Apr 12 5:20 pm — Apr 27 5:50 pm, Marl, Weather by CustomWeather, © 2017

Note: Actual official high and low records may vary slightly from our data, if they occured in-between our weather recording intervals... More about our weather records

Advertising

Marl Weather History for the Previous 24 Hours

Scroll right to see more
 ConditionsComfort  
Time TempWeatherWind HumidityBarometerVisibility
5:50 pm
Thu, Apr 27
46 °FScattered showers. Scattered clouds.10 mph43%29.98 "HgN/A
5:20 pm48 °FScattered showers. Scattered clouds.7 mph43%29.95 "HgN/A
4:50 pm48 °FScattered showers. Scattered clouds.5 mph43%29.98 "HgN/A
4:20 pm50 °FPassing clouds.7 mph35%29.98 "HgN/A
3:50 pm50 °FPassing clouds.9 mph35%29.98 "HgN/A
3:20 pm48 °FScattered showers. Clear.8 mph40%29.98 "HgN/A
2:50 pm50 °FScattered showers. Scattered clouds.6 mph40%29.98 "HgN/A
2:20 pm48 °FSunny.8 mph40%29.98 "Hg10 mi
1:50 pm46 °FPassing clouds.8 mph46%29.98 "HgN/A
1:20 pm46 °FPassing clouds.7 mph50%29.98 "HgN/A
12:50 pm45 °FPassing clouds.7 mph46%29.98 "HgN/A
12:20 pm45 °FScattered clouds.6 mph49%30.01 "HgN/A
11:50 am45 °FScattered clouds.6 mph46%30.01 "HgN/A
11:20 am46 °FPartly sunny.5 mph50%30.01 "HgN/A
10:50 am46 °FScattered clouds.6 mph53%30.01 "HgN/A
10:20 am45 °FScattered clouds.7 mph61%30.01 "HgN/A
9:50 am43 °FScattered clouds.5 mph66%30.01 "HgN/A
9:20 am43 °FSunny.2 mph71%30.01 "Hg10 mi
8:50 am41 °FPassing clouds.5 mph76%30.01 "HgN/A
8:20 am39 °FSunny.5 mph81%29.98 "Hg10 mi
7:50 am37 °FSunny.5 mph81%29.98 "Hg10 mi
7:20 am36 °FSunny.6 mph87%29.98 "Hg10 mi
6:50 am34 °FSunny.6 mph87%29.98 "Hg10 mi
6:20 am34 °FPartly sunny.6 mph87%29.98 "HgN/A
5:50 am32 °FPassing clouds.6 mph87%29.95 "HgN/A
5:20 am32 °FPassing clouds.5 mph87%29.95 "HgN/A
9:50 pm
Wed, Apr 26
39 °FClear.6 mph70%29.92 "Hg10 mi
9:20 pm41 °FPassing clouds.12 mph66%29.92 "HgN/A
8:50 pm43 °FClear.3 mph61%29.92 "Hg10 mi
8:20 pm43 °FSunny.6 mph61%29.89 "Hg10 mi
7:50 pm45 °FSunny.8 mph53%29.89 "Hg10 mi
7:20 pm45 °FSunny.7 mph49%29.89 "Hg10 mi
Weather by CustomWeather, © 2017

See weather overviewHow to use our weather pages